Regional Weather Roundup
Issued by NWS Northern Indiana

Home | Current Version | Previous Version | Text Only | Print | Product List | Glossary On
Versions: 1 2 3 4 5 6 7 8 9 10 11 12 13 14 15 16 17 18 19 20 21 22 23 24 25 26 27 28 29 30 31 32 33 34 35 36 37 38 39 40 41 42 43 44 45 46 47 48 49 50
615
ASUS43 KIWX 300910
RWRIWX

KIWX WEATHER ROUNDUP
NATIONAL WEATHER SERVICE NORTHERN INDIANA
500 AM EDT SAT JUL 30 2016

NOTE: "FAIR" INDICATES FEW OR NO CLOUDS BELOW 12,000 FEET WITH NO
SIGNIFICANT WEATHER AND/OR OBSTRUCTIONS TO VISIBILITY.

* THESE STATIONS ARE NOT UNDER NWS QUALITY CONTROL. THEY ALSO MAY NOT
  REPORT WEATHER SUCH AS PRECIPITATION OR FOG.

INZ001>027-301000-
NORTHERN INDIANA

CITY           SKY/WX    TMP DP  RH WIND       PRES   REMARKS
GARY*          PTCLDY    68  68 100 CALM      29.92S
VALPARAISO     CLOUDY    67  66  97 E3        29.93S
MICHIGAN CITY* CLOUDY    66  66 100 MISG      29.93S
LAPORTE*       CLOUDY   N/A N/A N/A E6        29.93F FOG
KNOX*          MOCLDY    64  64 100 CALM      29.92S
SOUTH BEND     CLOUDY    68  66  93 E5        29.93F
GOSHEN         CLOUDY    70  65  84 E6        29.93F HAZE
MONTICELLO*    FOG       67  64  87 CALM      29.91S VSB 1/4
LOGANSPORT*    FOG       68  66  94 E5        29.92F VSB 1/2
ROCHESTER*     CLOUDY    70  70 100 E5        29.93S FOG
WARSAW*        CLOUDY    68  68 100 CALM      29.93S FOG
ANGOLA*          N/A     66  57  72 NE3       29.94S
FORT WAYNE     MOCLDY    69  67  93 E5        29.92F FOG
HUNTINGTON*    CLOUDY    69  68  96 CALM      29.92S FOG
PERU/GRISSOM   CLOUDY    69  69 100 E5        29.91S
MARION*        FOG       67  67 100 E3        29.93S VSB 1/4

$$
INZ028>050-301000-
CENTRAL INDIANA

CITY           SKY/WX    TMP DP  RH WIND       PRES   REMARKS
LAFAYETTE      CLOUDY    67  67 100 NE5       29.90S FOG
KOKOMO*        CLOUDY    66  63  88 E5        29.92S VSB 1/2
MUNCIE*        FOG       68  66  93 CALM      29.93R VSB 1/4
INDIANAPOLIS   FOG       69  68  96 SW5       29.92R VSB 1/4

$$
MIZ043>046-050>051-056>058-064>065-071>073-077>080-301000-
SOUTHWEST LOWER MICHIGAN

CITY           SKY/WX    TMP DP  RH WIND       PRES   REMARKS
BATTLE CREEK   CLOUDY    63  60  90 NE8       29.97S
BENTON HARBOR  CLOUDY    67  60  78 NE8       29.93F
COLDWATER*     MOCLDY    63  62  96 NE6       29.95F
HILLSDALE*     CLOUDY    63  60  90 NE5       29.95F
HOLLAND        CLOUDY    64  58  80 NE7       29.99R
GRAND RAPIDS   RAIN      62  59  90 E16       29.99S FOG
KALAMAZOO      CLOUDY    65  60  84 N6        29.96S
STURGIS*       CLOUDY    64  61  91 NE7       29.94S
THREE RIVERS*  CLOUDY    66  59  77 NE5       29.95S

$$
OHZ001>008-015>018-024>025-301000-
NORTHWEST OHIO

CITY           SKY/WX    TMP DP  RH WIND       PRES   REMARKS
DEFIANCE       PTCLDY    67  62  84 NE5       29.92F
FINDLAY        MOCLDY    72  68  87 NE5       29.91S FOG
TOLEDO EXPRESS CLOUDY    66  63  90 N6        29.92S
TOLEDO METCALF CLOUDY    73  71  93 NE6       29.92F
LIMA           PTCLDY    68  68 100 CALM      29.92S FOG

$$
AND FOR LAKE MICHIGAN COASTAL AND OPEN LAKE BUOY OBSERVATIONS

STATION/POSITION TEMP    WIND        PRES    VSBY  WAVE
                 AIR SEA DIR/SP/G                  HT/PER
                 (F)     (DEG/KT/KT) (MB)    (MI)  (FT/S)
CALUMET HARBOR    72      30/  3/  4 1012.7F
MICHIGAN CITY     69     100/  5/  6   N/A
BURNS HARBOR      68      80/  5/  8 1013.9S
SAINT JOSEPH      67      30/  3/  4 1014.6
SOUTH LAKE BUOY   68 73   60/ 17/ 21 1014.0R         4/ 5
4 MI NW BRIDGMAN  69 71   50/  8/ 10 1013.1F         2
MICHIGAN CITY     70 76  130/ 12/ 14   N/A           2/ 5

$$
&&




USA.gov is the U.S. government's official web portal to all federal, state and local government web resources and services.